This is the latest recevied weather packets stored in our database for station/object OE6PLD-13. If no packets are shown the sender has not sent any weather packets the latest 10 day(s).
| Time | Temp. | Humidity | Pressure | Rain* | Wind** | Luminosity | Snow |
|---|---|---|---|---|---|---|---|
| 1777421336 | 12.22° C | 54% | 1015.1 hPa | 0.76 mm | - | 0 W/m² | - |
| 1777421153 | 12.78° C | 59% | 1015.2 hPa | 0.76 mm | - | 0 W/m² | - |
| 1777420969 | 12.78° C | 56% | 1015.1 hPa | 0.76 mm | - | 0 W/m² | - |
| 1777420786 | 12.22° C | 55% | 1015.1 hPa | 0.76 mm | - | 0 W/m² | - |
| 1777420603 | 12.22° C | 63% | 1015.1 hPa | 0.76 mm | - | 0 W/m² | - |
| 1777420419 | 11.67° C | 65% | 1015.1 hPa | 0.76 mm | - | 0 W/m² | - |
| 1777420236 | 11.67° C | 67% | 1015 hPa | 0.76 mm | - | 0 W/m² | - |
| 1777420053 | 12.22° C | 68% | 1015 hPa | 0.76 mm | - | 0 W/m² | - |
| 1777419869 | 12.22° C | 67% | 1014.9 hPa | 0.76 mm | - | 0 W/m² | - |
| 1777419686 | 12.22° C | 65% | 1015.1 hPa | 0.76 mm | - | 0 W/m² | - |
| 1777419503 | 12.78° C | 62% | 1014.9 hPa | 0.76 mm | - | 0 W/m² | - |
| 1777419319 | 12.78° C | 61% | 1015.1 hPa | 0.76 mm | - | 0 W/m² | - |
| 1777419136 | 12.78° C | 62% | 1015 hPa | 0.76 mm | - | 0 W/m² | - |
| 1777418953 | 12.78° C | 61% | 1015 hPa | 0.76 mm | - | 0 W/m² | - |
| 1777418769 | 12.78° C | 56% | 1014.8 hPa | 0.76 mm | - | 0 W/m² | - |
| 1777418586 | 13.33° C | 54% | 1015 hPa | 0.76 mm | - | 0 W/m² | - |
| 1777418403 | 13.33° C | 55% | 1014.9 hPa | 0.76 mm | - | 0 W/m² | - |
| 1777418219 | 13.89° C | 52% | 1015.3 hPa | 0.76 mm | - | 0 W/m² | - |
| 1777418036 | 13.89° C | 51% | 1014.8 hPa | 0.76 mm | - | 0 W/m² | - |
| 1777417853 | 13.89° C | 51% | 1015 hPa | 0.76 mm | - | 0 W/m² | - |
| 1777417669 | 13.89° C | 51% | 1015.1 hPa | 0.76 mm | - | 0 W/m² | - |
| 1777417486 | 13.89° C | 48% | 1015.1 hPa | 0.76 mm | - | 0 W/m² | - |
| 1777417303 | 13.89° C | 48% | 1015 hPa | 0.76 mm | - | 0 W/m² | - |
| 1777417119 | 13.89° C | 48% | 1015.1 hPa | 0.76 mm | - | 0 W/m² | - |
| 1777416753 | 13.89° C | 48% | 1015.1 hPa | 0.76 mm | - | 0 W/m² | - |
* Rain latest hour (hover to see other rain measurements)
** Current wind speed in m/s (hover to see current wind gust speed)